Location: Newark
(9.4667°S, 159.8167°E)
Time: 05:41:25
(UTC+00:00)

Vanguard 2 Rocket - All Passes

Search period start: 17 November 2019 00:00
Search period end: 27 November 2019 00:00
Orbit: 554 x 3326 km, 32.9° (Epoch: 16 November)

Date Brightness Start Highest point End Pass type
(mag) Time Alt. Az. Time Alt. Az. Time Alt. Az.
17 Nov - 00:57:58 10° WNW 01:16:53 60° SSW 01:35:33 10° SE daylight
17 Nov - 03:20:55 10° WSW 03:38:04 33° SSW 03:51:17 10° SE daylight
17 Nov - 05:46:34 10° SW 05:59:01 26° S 06:07:26 10° SE daylight
17 Nov - 08:06:35 10° SW 08:16:57 41° SSE 08:23:03 10° E visible
17 Nov - 10:24:03 10° WSW 10:30:56 44° NW 10:35:22 10° NNE visible
17 Nov - 19:34:23 10° NNE 19:39:37 13° NE 19:45:50 10° ENE daylight
17 Nov - 21:42:03 10° NNW 21:55:45 52° NE 22:14:54 10° ESE daylight
17 Nov - 23:56:18 10° WNW 00:14:01 74° SSW 00:34:13 10° SE daylight
18 Nov - 02:16:36 10° W 02:34:55 40° SSW 02:50:38 10° SE daylight
18 Nov - 04:42:09 10° SW 04:56:40 27° S 05:06:58 10° SE daylight
18 Nov - 07:04:18 10° SW 07:16:08 34° SSE 07:23:18 10° ESE daylight
18 Nov - 09:22:19 10° WSW 09:31:36 83° NW 09:36:53 10° NE visible
18 Nov - 20:43:13 10° NNW 20:54:30 36° NE 21:10:47 10° ESE daylight
18 Nov - 22:55:34 10° NW 23:11:30 89° NE 23:32:18 10° SE daylight
19 Nov - 01:13:19 10° W 01:31:41 48° SSW 01:49:40 10° SE daylight
19 Nov - 03:37:22 10° WSW 03:53:46 30° S 04:06:16 10° SE daylight
19 Nov - 06:01:19 10° SW 06:14:39 31° S 06:23:11 10° ESE daylight
19 Nov - 08:20:27 10° SW 08:31:43 65° SSE 08:37:56 10° ENE visible
19 Nov - 10:39:29 10° W 10:44:41 21° NW 10:48:28 10° N visible
19 Nov - 19:45:20 10° N 19:53:43 22° NE 20:05:13 10° E daylight
19 Nov - 21:55:36 10° NW 22:09:30 71° NE 22:29:44 10° ESE daylight
20 Nov - 00:11:08 10° WNW 00:28:33 59° SSW 00:48:16 10° SE daylight
20 Nov - 02:32:53 10° WSW 02:50:27 34° SSW 03:05:18 10° SE daylight
20 Nov - 04:57:37 10° SW 05:12:30 30° S 05:22:39 10° ESE daylight
20 Nov - 07:18:13 10° SW 07:31:12 49° SSE 07:38:33 10° E daylight
20 Nov - 09:36:55 10° WSW 09:45:33 45° NW 09:50:44 10° NNE visible
20 Nov - 18:50:32 10° NNE 18:53:10 11° NE 18:56:05 10° ENE daylight
20 Nov - 20:56:20 10° NNW 21:08:09 52° NE 21:26:21 10° ESE daylight
20 Nov - 23:09:56 10° WNW 23:25:45 72° SSW 23:46:24 10° SE daylight
21 Nov - 01:29:11 10° W 01:46:56 40° SSW 02:04:02 10° SE daylight
21 Nov - 03:53:26 10° SW 04:09:41 30° S 04:21:45 10° ESE daylight
21 Nov - 06:15:32 10° SW 06:30:01 40° SSE 06:38:43 10° E daylight
21 Nov - 08:34:36 10° WSW 08:46:03 79° NW 08:52:17 10° NE visible
21 Nov - 19:57:49 10° NNW 20:07:25 34° NE 20:22:04 10° ESE daylight
21 Nov - 22:09:35 10° NW 22:23:28 88° SW 22:44:02 10° SE daylight
22 Nov - 00:26:30 10° W 00:43:30 47° SSW 01:02:26 10° SE daylight
22 Nov - 02:49:11 10° WSW 03:06:19 32° S 03:20:29 10° SE daylight
22 Nov - 05:12:22 10° SW 05:28:09 36° SSE 05:38:23 10° ESE daylight
22 Nov - 07:32:10 10° SW 07:45:54 73° SSE 07:53:19 10° ENE visible
22 Nov - 09:52:23 10° W 09:59:12 24° NW 10:03:52 10° N visible
22 Nov - 19:00:20 10° N 19:07:08 20° NE 19:16:28 10° E daylight
22 Nov - 21:09:57 10° NW 21:21:53 72° NE 21:41:08 10° ESE daylight
22 Nov - 23:24:48 10° WNW 23:40:24 56° SSW 00:00:28 10° SE daylight
23 Nov - 01:45:21 10° WSW 02:02:37 35° S 02:18:52 10° SE daylight
23 Nov - 04:08:48 10° SW 04:25:34 33° S 04:37:32 10° ESE daylight
23 Nov - 06:29:31 10° SW 06:45:03 56° SSE 06:53:51 10° ENE daylight
23 Nov - 08:49:14 10° WSW 08:59:55 47° NW 09:06:04 10° NNE visible
23 Nov - 20:10:59 10° NNW 20:21:00 51° NE 20:37:36 10° ESE daylight
23 Nov - 22:24:01 10° WNW 22:37:49 69° SSW 22:58:08 10° SE daylight
24 Nov - 00:42:19 10° W 00:58:55 39° SSW 01:16:55 10° SE daylight
24 Nov - 03:05:04 10° SW 03:22:19 32° S 03:36:07 10° ESE daylight
24 Nov - 05:26:38 10° SW 05:43:30 46° SSE 05:53:51 10° E daylight
24 Nov - 07:46:22 10° WSW 08:00:08 76° NW 08:07:34 10° NE visible
24 Nov - 10:09:51 10° WNW 10:12:50 12° NW 10:15:22 10° NNW visible
24 Nov - 19:12:43 10° NNW 19:20:45 32° NE 19:33:22 10° ESE daylight
24 Nov - 21:24:00 10° WNW 21:35:55 86° SSW 21:55:25 10° SE daylight
24 Nov - 23:40:11 10° W 23:55:30 45° SSW 00:14:41 10° SE daylight
25 Nov - 02:01:28 10° WSW 02:18:36 33° S 02:34:14 10° SE daylight
25 Nov - 04:23:32 10° SW 04:41:12 40° SSE 04:53:15 10° E daylight
25 Nov - 06:43:32 10° SW 06:59:40 79° SSE 07:08:30 10° ENE daylight
25 Nov - 09:04:42 10° W 09:13:31 27° NW 09:19:14 10° N visible
25 Nov - 18:15:38 10° N 18:20:53 17° NE 18:27:55 10° E visible
25 Nov - 20:24:38 10° NW 20:34:44 73° NE 20:52:21 10° ESE daylight
25 Nov - 22:38:57 10° W 22:52:36 53° SSW 23:12:11 10° SE daylight
26 Nov - 00:58:21 10° WSW 01:14:44 35° S 01:31:54 10° SE daylight
26 Nov - 03:20:19 10° SW 03:38:13 36° S 03:52:00 10° ESE daylight
26 Nov - 05:40:40 10° SW 05:58:27 61° SSE 06:08:54 10° ENE daylight
26 Nov - 08:01:02 10° WSW 08:13:56 48° NW 08:21:18 10° NNE visible
26 Nov - 19:25:53 10° NNW 19:34:19 49° NE 19:48:52 10° ESE daylight
26 Nov - 21:38:30 10° WNW 21:50:21 65° SSW 22:09:29 10° SE daylight
